www.pogodaiklimat.ru

Погода и климат >> Архив погоды >> Япония >> Тадоцу


ПОГОДА в Тадоцу

  • Прогноз погоды в Тадоцу
  • Монитор погоды в Тадоцу

АРХИВ ПОГОДЫ в Тадоцу

Время (UTC), дата Ветер
(напр.,м/с)
 
Видим.   Явления Облачность Т
(С)
Тd
(С)
f
(%)
Тe
(С)
Тes
(С)
Комфортность P
(гПа)
Po
(гПа)
Тmin
(С)
Tmax
(С)
R
(мм)
R24
(мм)
S
(см)
10 18.06 ЮЗ 2 20 км н/о +23.2 +15.5 62 +27 +27 душно 1010.7 1010.1
11 18.06 ЮЗ 2 20 км н/о +23.0 +15.1 61 +27 +27 душно 1010.7 1010.1
12 18.06 штиль 0 20 км н/о +22.3 +15.4 65 +26 +26 жарко 1010.9 1010.3 +25.6
13 18.06 штиль 0 18 км н/о +21.7 +16.4 72 +26 +26 душно 1011.0 1010.4
14 18.06 ЮВ 1 16 км н/о +21.1 +16.7 76 +25 +25 комфорт 1010.9 1010.3
15 18.06 Ю 1 17 км н/о +20.7 +16.5 77 +25 +25 комфорт 1010.5 1009.9
16 18.06 Ю 1 17 км н/о +20.3 +16.6 79 +24 +24 комфорт 1010.1 1009.5
17 18.06 ЮВ 1 17 км н/о +20.1 +16.6 80 +24 +24 комфорт 1009.6 1009.0
18 18.06 Ю 1 14 км н/о +19.6 +16.8 84 +23 +23 комфорт 1009.3 1008.7
19 18.06 ЮВ 2 15 км н/о +19.4 +16.6 84 +22 +22 комфорт 1009.0 1008.4
20 18.06 ЮВ 2 14 км н/о +19.0 +16.6 86 +21 +21 комфорт 1009.2 1008.6
21 18.06 ЮВ 2 14 км в посл. час дождь н/о +19.5 +16.7 84 +22 +22 комфорт 1009.1 1008.5
22 18.06 В 1 14 км н/о +21.0 +17.0 78 +26 +26 душно 1009.1 1008.5
23 18.06 С 2 13 км н/о +21.9 +17.3 75 +26 +26 душно 1008.6 1008.0
00 19.06 С 3 13 км {дождь} н/о +22.4 +18.0 76 +27 +27 душно 1008.2 1007.6 +18.9 0.0
01 19.06 С 3 13 км н/о +23.1 +18.2 74 +29 +29 очень
душно
1008.1 1007.5
02 19.06 С 2 16 км н/о +23.7 +17.0 66 +27 +27 жарко 1007.5 1006.9
03 19.06 С 3 18 км н/о +24.8 +17.0 62 +29 +29 душно 1006.8 1006.2
04 19.06 С 3 20 км н/о +25.0 +17.7 64 +29 +29 душно 1006.2 1005.6
05 19.06 С 3 19 км н/о +25.5 +18.7 66 +30 +30 душно 1005.4 1004.8
06 19.06 С 4 20 км н/о +25.2 +17.2 61 +29 +29 душно 1004.8 1004.2
07 19.06 СЗ 3 20 км н/о +26.0 +15.7 53 +29 +29 душно 1004.5 1003.9
08 19.06 СЗ 2 17 км н/о +26.0 +15.1 51 +29 +29 душно 1004.1 1003.5
09 19.06 З 2 17 км н/о +25.9 +15.6 53 +29 +29 душно 1004.2 1003.6
10 19.06 СЗ 2 16 км н/о +24.8 +16.0 58 +28 +28 жарко 1004.6 1004.0
11 19.06 З 1 19 км н/о +23.9 +16.2 62 +27 +27 жарко 1005.0 1004.4
12 19.06 З 1 19 км н/о +23.4 +16.5 65 +28 +28 душно 1005.2 1004.6 +26.9
13 19.06 З 1 14 км н/о +23.3 +16.4 65 +28 +28 душно 1005.5 1004.9
14 19.06 СЗ 1 9000 м дым н/о +22.4 +17.6 74 +27 +27 душно 1005.5 1004.9
15 19.06 Ю 1 9000 м дымка н/о +22.0 +17.6 76 +27 +27 душно 1005.6 1005.0
16 19.06 Ю 1 12 км н/о +21.4 +16.6 74 +25 +25 комфорт 1005.4 1004.8
17 19.06 штиль 0 11 км н/о +21.4 +16.8 75 +25 +25 комфорт 1005.3 1004.7
18 19.06 С 1 11 км н/о +21.3 +16.9 76 +25 +25 комфорт 1005.5 1004.9
19 19.06 Ю 1 10 км н/о +21.1 +16.9 77 +25 +25 комфорт 1005.6 1005.0
20 19.06 ЮЗ 2 8000 м дымка н/о +21.3 +17.3 78 +25 +25 комфорт 1005.9 1005.3
21 19.06 ЮЗ 2 6000 м дымка н/о +21.8 +18.4 81 +27 +27 душно 1006.3 1005.7
22 19.06 ЮЗ 3 6000 м дымка н/о +22.7 +18.9 79 +29 +29 очень
душно
1006.8 1006.2
23 19.06 З 2 11 км н/о +24.3 +18.9 72 +29 +29 душно 1007.0 1006.4
00 20.06 З 3 14 км н/о +25.9 +17.8 61 +30 +30 душно 1006.8 1006.2 +20.9
01 20.06 З 3 14 км н/о +26.7 +17.8 58 +31 +31 душно 1006.9 1006.3
02 20.06 З 3 14 км н/о +28.4 +17.9 53 +33 +33 очень
душно
1006.7 1006.1
03 20.06 З 3 13 км н/о +28.4 +17.3 51 +32 +32 душно 1006.4 1005.8
04 20.06 З 3 15 км н/о +30.0 +16.8 45 +34 +34 очень
душно
1006.0 1005.4
05 20.06 З 2 16 км н/о +30.1 +15.8 42 +33 +33 душно 1005.7 1005.1
06 20.06 З 2 16 км н/о +29.6 +16.1 44 +33 +33 душно 1005.3 1004.7
07 20.06 З 2 20 км н/о +29.7 +15.8 43 +33 +33 душно 1004.9 1004.3
08 20.06 З 2 19 км н/о +29.4 +15.5 43 +32 +32 душно 1005.0 1004.4
09 20.06 З 2 20 км н/о +29.1 +15.3 43 +32 +32 душно 1005.4 1004.8
10 20.06 З 2 20 км н/о +27.6 +15.9 49 +31 +31 душно 1005.7 1005.1
11 20.06 З 2 20 км н/о +26.4 +15.8 52 +30 +30 душно 1006.2 1005.6
12 20.06 З 1 19 км н/о +26.1 +16.1 54 +29 +29 жарко 1007.2 1006.6 +30.8
13 20.06 В 1 19 км н/о +25.8 +16.4 56 +29 +29 душно 1007.4 1006.8
15 20.06 С 1 11 км н/о +23.3 +19.3 78 +30 +30 очень
душно
1007.5 1006.9
16 20.06 ЮЗ 2 14 км н/о +24.6 +16.9 62 +28 +28 душно 1007.1 1006.5
17 20.06 З 2 11 км н/о +24.2 +17.0 64 +28 +28 душно 1006.9 1006.3
18 20.06 Ю 2 11 км н/о +23.3 +17.8 71 +29 +29 душно 1007.2 1006.6
19 20.06 ЮВ 2 10 км н/о +22.6 +17.7 74 +28 +28 душно 1007.1 1006.5
20 20.06 ЮВ 1 10 км н/о +22.0 +17.4 75 +26 +26 душно 1007.3 1006.7
21 20.06 В 1 10 км н/о +22.3 +17.7 75 +27 +27 душно 1007.4 1006.8
22 20.06 В 1 9000 м дым н/о +23.3 +17.8 71 +29 +29 душно 1007.5 1006.9
23 20.06 С 2 7000 м дымка н/о +23.1 +19.5 80 +30 +30 очень
душно
1007.5 1006.9
00 21.06 С 4 7000 м дымка н/о +23.6 +20.0 80 +29 +29 душно 1007.6 1007.0 +21.9
01 21.06 С 3 8000 м дым н/о +24.9 +20.4 76 +31 +31 очень
душно
1007.3 1006.7
02 21.06 С 3 7000 м дымка н/о +23.9 +20.5 81 +30 +30 очень
душно
1007.2 1006.6
03 21.06 СЗ 3 9000 м дым н/о +25.1 +19.5 71 +30 +30 душно 1007.1 1006.5
04 21.06 З 2 9000 м дым н/о +26.1 +19.3 66 +31 +31 очень
душно
1006.4 1005.8
05 21.06 СЗ 2 9000 м дым н/о +25.7 +18.9 66 +31 +31 очень
душно
1005.6 1005.0
06 21.06 С 2 8000 м дым н/о +25.4 +20.2 73 +31 +31 очень
душно
1005.1 1004.5
07 21.06 СЗ 2 8000 м дым н/о +27.3 +20.4 66 +34 +34 очень
душно
1005.1 1004.5
08 21.06 ЮЗ 3 9000 м дым н/о +26.3 +20.2 69 +32 +32 очень
душно
1005.5 1004.9
09 21.06 ЮВ 3 18 км н/о +25.0 +18.5 67 +30 +30 душно 1005.3 1004.7
10 21.06 ЮВ 2 15 км н/о +24.7 +19.1 71 +30 +30 очень
душно
1005.5 1004.9
11 21.06 В 1 12 км н/о +25.0 +20.1 74 +31 +31 очень
душно
1005.7 1005.1
12 21.06 В 2 12 км н/о +23.4 +19.8 80 +30 +30 очень
душно
1006.1 1005.5 +27.3
13 21.06 ЮВ 2 10 км н/о +22.8 +19.8 83 +29 +29 очень
душно
1006.2 1005.6
15 21.06 В 1 10 км н/о +21.9 +18.9 83 +27 +27 душно 1005.4 1004.8
16 21.06 ЮВ 1 9000 м дымка н/о +21.6 +19.2 86 +27 +27 душно 1004.9 1004.3
17 21.06 С 2 7000 м дымка н/о +21.6 +19.9 90 +27 +27 душно 1004.6 1004.0
18 21.06 Ю 1 7000 м дымка н/о +20.9 +19.0 89 +26 +26 душно 1004.4 1003.8
19 21.06 штиль 0 8000 м дымка н/о +20.8 +18.9 89 +25 +25 комфорт 1004.6 1004.0
20 21.06 ЮВ 1 7000 м дымка н/о +20.3 +18.8 91 +25 +25 комфорт 1004.6 1004.0
21 21.06 В 1 7000 м дымка н/о +20.5 +18.6 89 +25 +25 комфорт 1004.7 1004.1
22 21.06 С 1 8000 м дымка н/о +21.8 +19.4 86 +27 +27 душно 1004.9 1004.3
23 21.06 СЗ 2 10 км н/о +23.0 +19.6 81 +30 +30 очень
душно
1004.8 1004.2
00 22.06 З 1 10 км н/о +23.9 +19.2 75 +29 +29 душно 1004.6 1004.0 +20.1
01 22.06 З 2 14 км н/о +24.0 +18.4 71 +28 +28 душно 1004.7 1004.1
02 22.06 З 2 13 км н/о +24.8 +19.0 70 +30 +30 душно 1004.6 1004.0
03 22.06 З 2 12 км н/о +27.2 +19.0 61 +32 +32 очень
душно
1004.1 1003.5
04 22.06 З 3 10 км н/о +27.5 +19.8 63 +33 +33 очень
душно
1003.4 1002.8
05 22.06 З 2 12 км н/о +28.0 +19.8 61 +34 +34 очень
душно
1003.0 1002.4
06 22.06 З 3 13 км н/о +27.3 +18.6 59 +32 +32 очень
душно
1002.5 1001.9
07 22.06 З 3 10 км н/о +26.2 +19.6 67 +32 +32 очень
душно
1002.6 1002.0
08 22.06 СЗ 3 9000 м дымка н/о +24.4 +20.1 77 +30 +30 очень
душно
1003.0 1002.4
09 22.06 З 2 10 км н/о +24.9 +19.1 70 +30 +30 душно 1003.6 1003.0
10 22.06 СЗ 2 8000 м дымка н/о +24.1 +19.6 76 +29 +29 душно 1004.1 1003.5
11 22.06 С 2 10 км н/о +23.5 +20.3 82 +29 +29 душно 1004.4 1003.8
12 22.06 С 2 11 км н/о +23.0 +20.0 83 +30 +30 очень
душно
1004.9 1004.3 +28.7
13 22.06 С 4 20 км н/о +23.1 +17.8 72 +29 +29 очень
душно
1005.3 1004.7
14 22.06 С 3 20 км н/о +22.6 +18.2 76 +28 +28 душно 1005.4 1004.8
15 22.06 С 3 20 км н/о +22.4 +17.3 73 +27 +27 душно 1005.3 1004.7
16 22.06 С 2 20 км н/о +22.0 +17.0 73 +26 +26 душно 1005.1 1004.5
17 22.06 С 2 20 км н/о +21.7 +16.7 73 +26 +26 душно 1004.7 1004.1
18 22.06 С 2 20 км н/о +21.5 +16.7 74 +25 +25 комфорт 1004.6 1004.0
19 22.06 С 3 20 км н/о +21.2 +16.8 76 +25 +25 комфорт 1004.6 1004.0
20 22.06 С 2 20 км н/о +21.2 +16.8 76 +25 +25 комфорт 1005.1 1004.5
21 22.06 С 2 20 км н/о +21.1 +16.9 77 +25 +25 комфорт 1005.2 1004.6
22 22.06 С 3 20 км н/о +21.1 +16.9 77 +25 +25 комфорт 1005.5 1004.9
23 22.06 С 2 20 км н/о +21.3 +17.1 77 +25 +25 комфорт 1005.6 1005.0
00 23.06 СЗ 2 20 км слаб. дождь н/о +21.3 +16.9 76 +25 +25 комфорт 1005.7 1005.1 +20.9 0.0
01 23.06 С 2 20 км в посл. час дождь н/о +21.6 +16.8 74 +26 +26 душно 1005.6 1005.0
02 23.06 СВ 1 20 км н/о +22.0 +17.0 73 +26 +26 душно 1005.6 1005.0
03 23.06 З 2 20 км {дождь} н/о +23.0 +17.2 70 +28 +28 душно 1005.5 1004.9
04 23.06 ЮЗ 2 16 км н/о +24.2 +17.7 67 +28 +28 душно 1005.1 1004.5
05 23.06 З 2 13 км н/о +24.5 +18.2 68 +29 +29 душно 1004.9 1004.3
06 23.06 ЮЗ 2 13 км {дождь} н/о +24.1 +17.8 68 +28 +28 душно 1004.6 1004.0 0.0
07 23.06 З 3 18 км н/о +25.0 +18.2 66 +29 +29 душно 1004.7 1004.1
08 23.06 З 3 15 км н/о +23.7 +17.9 70 +28 +28 душно 1005.1 1004.5
09 23.06 З 2 17 км н/о +23.3 +17.8 71 +29 +29 душно 1005.1 1004.5
10 23.06 СЗ 3 19 км н/о +22.7 +17.8 74 +28 +28 душно 1005.7 1005.1
11 23.06 С 2 16 км н/о +22.6 +18.2 76 +28 +28 душно 1006.4 1005.8
12 23.06 СЗ 1 16 км н/о +22.4 +18.6 79 +28 +28 душно 1007.0 1006.4 +25.8 0.0
13 23.06 СВ 3 20 км н/о +22.6 +17.1 71 +27 +27 душно 1007.3 1006.7
14 23.06 С 3 20 км н/о +22.3 +18.1 77 +27 +27 душно 1007.2 1006.6
15 23.06 В 3 20 км н/о +22.4 +17.1 72 +27 +27 душно 1007.1 1006.5
16 23.06 СВ 1 20 км н/о +22.0 +17.4 75 +26 +26 душно 1007.1 1006.5
17 23.06 С 2 20 км н/о +21.1 +15.9 72 +24 +24 комфорт 1007.1 1006.5
18 23.06 СВ 2 20 км н/о +20.8 +15.4 71 +25 +25 комфорт 1007.4 1006.8
19 23.06 С 3 20 км н/о +21.0 +15.6 71 +25 +25 комфорт 1008.0 1007.4
20 23.06 СВ 1 20 км н/о +20.7 +15.3 71 +25 +25 комфорт 1008.6 1008.0
21 23.06 С 2 20 км н/о +20.9 +15.0 69 +25 +25 комфорт 1009.3 1008.7
22 23.06 С 3 20 км н/о +21.5 +14.9 66 +25 +25 комфорт 1010.1 1009.5
23 23.06 С 3 20 км н/о +22.0 +15.1 65 +26 +26 душно 1011.1 1010.5
00 24.06 З 2 20 км н/о +23.3 +14.9 59 +27 +27 душно 1011.4 1010.8 +20.6
01 24.06 СЗ 3 20 км н/о +24.6 +14.7 54 +27 +27 жарко 1011.7 1011.1
02 24.06 З 3 20 км н/о +24.7 +14.5 53 +27 +27 жарко 1011.6 1011.0
03 24.06 З 3 20 км н/о +25.5 +14.0 49 +28 +28 жарко 1011.5 1010.9
04 24.06 З 3 20 км н/о +26.7 +14.5 47 +29 +29 жарко 1011.1 1010.5
05 24.06 З 3 20 км н/о +27.4 +15.1 47 +30 +30 жарко 1011.0 1010.4
06 24.06 З 3 20 км н/о +27.4 +14.1 44 +30 +30 жарко 1010.9 1010.3
07 24.06 З 2 20 км н/о +26.9 +14.7 47 +29 +29 жарко 1011.0 1010.4
08 24.06 З 3 20 км н/о +26.7 +14.5 47 +29 +29 жарко 1010.9 1010.3
09 24.06 З 2 20 км н/о +26.0 +14.2 48 +28 +28 жарко 1011.3 1010.7
10 24.06 З 2 20 км н/о +25.5 +14.9 52 +28 +28 жарко 1012.1 1011.5
11 24.06 СЗ 1 20 км н/о +24.6 +15.3 56 +28 +28 душно 1013.0 1012.4
12 24.06 С 1 20 км н/о +23.9 +16.4 63 +27 +27 жарко 1013.9 1013.3 +28.4
13 24.06 С 3 20 км н/о +23.8 +17.3 67 +28 +28 душно 1014.9 1014.3
14 24.06 СВ 2 20 км н/о +23.1 +16.4 66 +28 +28 душно 1015.1 1014.5
15 24.06 СВ 2 20 км н/о +22.2 +16.3 69 +26 +26 душно 1015.1 1014.5
16 24.06 В 1 20 км н/о +21.6 +16.4 72 +25 +25 комфорт 1015.2 1014.6
17 24.06 ЮВ 1 20 км н/о +20.9 +15.9 73 +25 +25 комфорт 1015.3 1014.7
19 24.06 ЮВ 1 20 км н/о +19.7 +16.0 79 +23 +23 комфорт 1015.6 1015.0
20 24.06 В 1 20 км н/о +19.0 +15.7 81 +21 +21 комфорт 1016.1 1015.5
21 24.06 ЮВ 2 20 км н/о +19.5 +16.0 80 +22 +22 комфорт 1016.2 1015.6
22 24.06 В 2 20 км н/о +22.0 +17.2 74 +26 +26 душно 1016.4 1015.8
23 24.06 С 4 20 км н/о +22.5 +17.9 75 +28 +28 душно 1016.6 1016.0
00 25.06 С 5 20 км н/о +23.5 +18.4 73 +28 +28 душно 1016.6 1016.0 +18.9
01 25.06 С 5 20 км н/о +24.4 +17.9 67 +29 +29 душно 1016.5 1015.9
02 25.06 С 5 20 км н/о +25.0 +17.7 64 +29 +29 душно 1016.3 1015.7
03 25.06 С 4 20 км н/о +26.6 +17.7 58 +31 +31 душно 1016.1 1015.5
05 25.06 С 4 20 км н/о +27.4 +17.6 55 +32 +32 очень
душно
1014.9 1014.3
06 25.06 С 4 20 км н/о +28.3 +17.8 53 +33 +33 очень
душно
1014.2 1013.6
07 25.06 С 5 20 км н/о +30.0 +15.3 41 +33 +33 душно 1014.2 1013.6
08 25.06 С 3 20 км н/о +28.4 +17.6 52 +33 +33 очень
душно
1014.2 1013.6
09 25.06 С 3 20 км н/о +27.7 +18.1 56 +32 +32 очень
душно
1014.2 1013.6
10 25.06 С 2 20 км н/о +26.5 +18.6 62 +31 +31 душно 1014.7 1014.1
11 25.06 ЮЗ 2 20 км н/о +25.3 +19.0 68 +30 +30 душно 1015.3 1014.7

 

Местоположение метеостанции Тадоцу (Япония): широта 34.28 долгота 133.75 высота над уровнем моря 5 м.

В архиве по умолчанию представлена погода в Тадоцу за последнюю неделю. Архивные данные за месяц целиком и за предыдущие месяцы, начиная с января 2011 года, Вы можете получить, выбрав интересующий диапазон дат из раскрывающегося списка и нажав кнопку "Ввод!".


*Определитесь, кто Вы:
робот инопланетянин человек

Внимание! Время в таблицах - всемирное. Для получения местного времени необходимо прибавить поправку, которая равна 9 ч.

Смотрите также архив погоды в соседних городах и на ближайших метеорологических станциях:

Погода в Такамацу (Япония) (28 км)
Погода в Окаяме (Япония) (46 км)
Погода в Фукуяме (Япония) (50 км)
Погода в Токусиме (Япония) (78 км)
Погода в Коти (Япония) (81 км)
Погода в Цуяме (Япония) (91 км)
Погода в Мацуяме (Япония) (101 км)
Погода в Химедзи (Япония) (103 км)
Погода в Сумото (Япония) (106 км)
Погода в Куре (Япония) (110 км)

Пояснения к столбцам:

Ветер - указаны скорость ветра в м/с - средняя за 10 мин, порывы в срок и между сроками (в фигурных скобках) и направление, откуда дует ветер: С - северный, СВ - северо-восточный, В - восточный, ЮВ - юго-восточный, Ю - южный, ЮЗ - юго-западный, З - западный, СЗ - северо-западный.
Видимость - горизонтальная дальность видимости в метрах или километрах. При видимости от 1 до 10 км при отсутствии осадков обычно наблюдается дымка, при ухудшении видимости до 1 км и менее - туман. В сухую погоду видимость может ухудшаться дымом, пылью или мглою.
Явления - указаны атмосферные явления, наблюдавшиеся в срок или в последний час перед сроком; фигурными скобками обозначены явления, наблюдавшиеся между сроками (за 1-3 часа до срока); квадратными скобками обозначены град или гололедные отложения с указанием их диаметра в мм.
Облачность - указаны через наклонную черту общая и нижняя облачность в баллах и высота нижней границы облаков в метрах; квадратными скобками обозначены формы облаков: Ci - перистые, Cs - перисто-слоистые, Cc - перисто-кучевые, Ac - высококучевые, As - высокослоистые, Sc - слоисто-кучевые, Ns - слоисто-дождевые, Cu - кучевые, Cb - кучево-дождевые. Подробнее классификацию облаков см. в Атласе облаков (PDF).
T - Температура воздуха - температура, измеренная на высоте 2 м над землей.
Td - Температура точки росы - температура, при понижении до которой содержащийся в воздухе водяной пар достигнет насыщения.
f - Относительная влажность воздуха - влажноcть воздуха, измеренная на высоте 2 м над землей.
Te - Эффективная температура - температура, которую ощущает одетый по сезону человек в тени. Характеристика душности погоды. При расчете учитывается влияние влажности воздуха и скорости ветра на теплоощущения человека.
Tes - Эффективная температура на солнце - температура, которую ощущает человек, с поправкой на солнечный нагрев. Характеристика знойности погоды. Зависит от высоты солнца над горизонтом, облачности и скорости ветра. Ночью, в пасмурную погоду, а также при ветре 12 м/с и более поправка равна нулю.
P - Атмосферное давление - приведенное к уровню моря атмосферное давление.
Po - Атмосферное давление - измеренное на уровне метеостанции атмосферное давление.
Tmin - Минимальная температура - минимум температуры воздуха на высоте 2 м над землей.
Tmax - Максимальная температура - максимум температуры воздуха на высоте 2 м над землей.
R - Количество осадков - Количество выпавших осадков за период времени, мм. При наведении курсора мыши на число - период времени, за который выпало указанное количество осадков.
R24 - Количество осадков - Количество выпавших осадков за 24 часа, мм.
S - Снежный покров - Высота снежного покрова, см. При наведении курсора мыши на число - состояние снежного покрова и степень покрытия местности в баллах.